Time,TemperatureF,DewpointF,PressureIn,WindDirection,WindDirectionDegrees,WindSpeedMPH,WindSpeedGustMPH,Humidity,HourlyPrecipIn,Conditions,Clouds,dailyrainin,SoftwareType,DateUTC
2013-08-19 00:08:00,54.9,45.0,29.91,NNE,17,0.0,0.0,70,0.00,,,0.00,weatherlink.com 1.10,2013-08-19 06:08:00,
2013-08-19 00:23:00,56.0,47.0,29.91,North,10,4.0,7.0,71,0.00,,,0.00,weatherlink.com 1.10,2013-08-19 06:23:00,
2013-08-19 00:38:00,56.2,47.0,29.91,North,1,0.0,5.0,70,0.00,,,0.00,weatherlink.com 1.10,2013-08-19 06:38:00,
2013-08-19 00:53:00,54.2,46.0,29.92,North,8,0.0,0.0,74,0.00,,,0.00,weatherlink.com 1.10,2013-08-19 06:53:00,
2013-08-19 01:08:00,53.0,46.0,29.92,NE,39,0.0,0.0,77,0.00,,,0.00,weatherlink.com 1.10,2013-08-19 07:08:00,
2013-08-19 01:23:00,53.1,46.0,29.92,ENE,59,0.0,0.0,77,0.00,,,0.00,weatherlink.com 1.10,2013-08-19 07:23:00,
2013-08-19 01:38:00,53.0,46.0,29.92,ENE,59,0.0,0.0,77,0.00,,,0.00,weatherlink.com 1.10,2013-08-19 07:38:00,
2013-08-19 01:53:00,51.2,45.0,29.92,ENE,60,0.0,4.0,78,0.00,,,0.00,weatherlink.com 1.10,2013-08-19 07:53:00,
2013-08-19 02:08:00,50.3,45.0,29.92,ENE,60,0.0,0.0,81,0.00,,,0.00,weatherlink.com 1.10,2013-08-19 08:08:00,
2013-08-19 02:23:00,50.6,45.0,29.92,ENE,60,0.0,0.0,81,0.00,,,0.00,weatherlink.com 1.10,2013-08-19 08:23:00,
2013-08-19 02:38:00,51.2,46.0,29.92,ENE,60,0.0,0.0,81,0.00,,,0.00,weatherlink.com 1.10,2013-08-19 08:38:00,
2013-08-19 02:53:00,51.2,45.0,29.92,ENE,59,3.0,4.0,78,0.00,,,0.00,weatherlink.com 1.10,2013-08-19 08:53:00,
2013-08-19 03:09:00,50.0,43.0,29.92,ENE,60,2.0,5.0,78,0.00,,,0.00,weatherlink.com 1.10,2013-08-19 09:09:00,
2013-08-19 03:24:00,50.1,44.0,29.92,ENE,60,0.0,0.0,80,0.00,,,0.00,weatherlink.com 1.10,2013-08-19 09:24:00,
2013-08-19 03:39:00,50.3,44.0,29.92,ENE,60,0.0,0.0,80,0.00,,,0.00,weatherlink.com 1.10,2013-08-19 09:39:00,
2013-08-19 03:54:00,50.6,44.0,29.93,ENE,61,0.0,0.0,79,0.00,,,0.00,weatherlink.com 1.10,2013-08-19 09:54:00,
2013-08-19 04:09:00,50.1,44.0,29.93,ENE,60,0.0,0.0,80,0.00,,,0.00,weatherlink.com 1.10,2013-08-19 10:09:00,
2013-08-19 04:24:00,49.3,43.0,29.93,ENE,61,3.0,4.0,79,0.00,,,0.00,weatherlink.com 1.10,2013-08-19 10:24:00,
2013-08-19 04:39:00,49.1,43.0,29.93,ENE,62,0.0,0.0,80,0.00,,,0.00,weatherlink.com 1.10,2013-08-19 10:39:00,
2013-08-19 04:54:00,48.6,43.0,29.93,ENE,62,4.0,5.0,80,0.00,,,0.00,weatherlink.com 1.10,2013-08-19 10:54:00,
2013-08-19 05:09:00,48.9,43.0,29.93,ENE,63,0.0,0.0,80,0.00,,,0.00,weatherlink.com 1.10,2013-08-19 11:09:00,
2013-08-19 05:24:00,48.7,42.0,29.94,ENE,64,0.0,5.0,77,0.00,,,0.00,weatherlink.com 1.10,2013-08-19 11:24:00,
2013-08-19 05:39:00,48.4,42.0,29.94,ENE,64,0.0,0.0,77,0.00,,,0.00,weatherlink.com 1.10,2013-08-19 11:39:00,
2013-08-19 05:54:00,49.2,42.0,29.94,ENE,64,0.0,0.0,75,0.00,,,0.00,weatherlink.com 1.10,2013-08-19 11:54:00,
2013-08-19 06:09:00,47.4,41.0,29.95,ENE,64,2.0,4.0,79,0.00,,,0.00,weatherlink.com 1.10,2013-08-19 12:09:00,
2013-08-19 06:24:00,47.2,42.0,29.95,ENE,64,0.0,0.0,82,0.00,,,0.00,weatherlink.com 1.10,2013-08-19 12:24:00,
2013-08-19 06:39:00,47.5,42.0,29.96,ENE,64,0.0,0.0,80,0.00,,,0.00,weatherlink.com 1.10,2013-08-19 12:39:00,
2013-08-19 06:54:00,47.9,43.0,29.97,ENE,64,0.0,0.0,82,0.00,,,0.00,weatherlink.com 1.10,2013-08-19 12:54:00,
2013-08-19 07:09:00,50.2,44.0,29.97,ENE,64,0.0,0.0,78,0.00,,,0.00,weatherlink.com 1.10,2013-08-19 13:09:00,
2013-08-19 07:24:00,51.5,44.0,29.98,ENE,64,0.0,0.0,76,0.00,,,0.00,weatherlink.com 1.10,2013-08-19 13:24:00,
2013-08-19 07:39:00,52.2,44.0,29.98,ENE,64,0.0,0.0,74,0.00,,,0.00,weatherlink.com 1.10,2013-08-19 13:39:00,
2013-08-19 07:54:00,52.7,45.0,29.98,ENE,64,0.0,0.0,74,0.00,,,0.00,weatherlink.com 1.10,2013-08-19 13:54:00,
2013-08-19 08:09:00,56.3,46.0,29.98,ENE,64,0.0,0.0,68,0.00,,,0.00,weatherlink.com 1.10,2013-08-19 14:09:00,
2013-08-19 08:24:00,57.8,46.0,29.97,ENE,63,0.0,4.0,66,0.00,,,0.00,weatherlink.com 1.10,2013-08-19 14:24:00,
2013-08-19 08:39:00,60.1,47.0,29.97,ENE,63,0.0,0.0,62,0.00,,,0.00,weatherlink.com 1.10,2013-08-19 14:39:00,
2013-08-19 08:54:00,60.4,47.0,29.97,ESE,108,5.0,5.0,62,0.00,,,0.00,weatherlink.com 1.10,2013-08-19 14:54:00,
2013-08-19 09:09:00,59.8,48.0,29.97,South,183,0.0,0.0,65,0.00,,,0.00,weatherlink.com 1.10,2013-08-19 15:09:00,
2013-08-19 09:24:00,61.8,48.0,29.96,South,183,0.0,0.0,60,0.00,,,0.00,weatherlink.com 1.10,2013-08-19 15:24:00,
2013-08-19 09:39:00,63.1,48.0,29.96,South,186,0.0,6.0,59,0.00,,,0.00,weatherlink.com 1.10,2013-08-19 15:39:00,
2013-08-19 09:54:00,63.6,48.0,29.96,SSW,192,0.0,3.0,57,0.00,,,0.00,weatherlink.com 1.10,2013-08-19 15:54:00,
2013-08-19 10:09:00,65.5,48.0,29.95,SSW,192,0.0,0.0,54,0.00,,,0.00,weatherlink.com 1.10,2013-08-19 16:09:00,
2013-08-19 10:24:00,67.0,49.0,29.95,SSW,200,0.0,0.0,53,0.00,,,0.00,weatherlink.com 1.10,2013-08-19 16:24:00,
2013-08-19 10:39:00,68.8,49.0,29.94,SSW,200,0.0,0.0,50,0.00,,,0.00,weatherlink.com 1.10,2013-08-19 16:39:00,
2013-08-19 10:55:00,70.2,49.0,29.93,SSW,203,0.0,3.0,48,0.00,,,0.00,weatherlink.com 1.10,2013-08-19 16:55:00,
2013-08-19 11:10:00,71.9,50.0,29.93,SSW,205,0.0,5.0,46,0.00,,,0.00,weatherlink.com 1.10,2013-08-19 17:10:00,
2013-08-19 11:25:00,73.3,49.0,29.93,SSW,206,2.0,5.0,43,0.00,,,0.00,weatherlink.com 1.10,2013-08-19 17:25:00,
2013-08-19 11:40:00,75.1,48.0,29.92,WSW,248,4.0,7.0,39,0.00,,,0.00,weatherlink.com 1.10,2013-08-19 17:40:00,
2013-08-19 11:55:00,75.8,48.0,29.91,WSW,240,2.0,9.0,37,0.00,,,0.00,weatherlink.com 1.10,2013-08-19 17:55:00,
2013-08-19 12:10:00,77.4,49.0,29.90,West,263,0.0,8.0,37,0.00,,,0.00,weatherlink.com 1.10,2013-08-19 18:10:00,
2013-08-19 12:25:00,78.9,49.0,29.89,SW,232,0.0,7.0,35,0.00,,,0.00,weatherlink.com 1.10,2013-08-19 18:25:00,
2013-08-19 12:40:00,79.3,49.0,29.88,WSW,238,5.0,9.0,34,0.00,,,0.00,weatherlink.com 1.10,2013-08-19 18:40:00,
2013-08-19 12:55:00,80.9,48.0,29.87,WSW,238,0.0,10.0,32,0.00,,,0.00,weatherlink.com 1.10,2013-08-19 18:55:00,
2013-08-19 13:10:00,81.2,47.0,29.86,South,182,5.0,12.0,30,0.00,,,0.00,weatherlink.com 1.10,2013-08-19 19:10:00,
2013-08-19 13:25:00,83.6,41.0,29.86,WNW,298,0.0,8.0,22,0.00,,,0.00,weatherlink.com 1.10,2013-08-19 19:25:00,
2013-08-19 13:40:00,85.9,42.0,29.85,ENE,75,0.0,11.0,21,0.00,,,0.00,weatherlink.com 1.10,2013-08-19 19:40:00,
2013-08-19 13:55:00,87.1,39.0,29.85,North,8,9.0,12.0,18,0.00,,,0.00,weatherlink.com 1.10,2013-08-19 19:55:00,
2013-08-19 14:10:00,85.7,38.0,29.84,ESE,105,0.0,16.0,18,0.00,,,0.00,weatherlink.com 1.10,2013-08-19 20:10:00,
2013-08-19 14:25:00,87.3,36.0,29.84,North,360,13.0,15.0,16,0.00,,,0.00,weatherlink.com 1.10,2013-08-19 20:25:00,
2013-08-19 14:40:00,87.8,38.0,29.84,WNW,296,0.0,9.0,17,0.00,,,0.00,weatherlink.com 1.10,2013-08-19 20:40:00,
2013-08-19 14:55:00,88.4,35.0,29.83,North,359,5.0,11.0,15,0.00,,,0.00,weatherlink.com 1.10,2013-08-19 20:55:00,
2013-08-19 15:11:00,87.1,37.0,29.82,NW,309,2.0,8.0,17,0.00,,,0.00,weatherlink.com 1.10,2013-08-19 21:11:00,
2013-08-19 15:26:00,85.1,37.0,29.82,NNW,333,3.0,6.0,18,0.00,,,0.00,weatherlink.com 1.10,2013-08-19 21:26:00,
2013-08-19 15:41:00,84.2,33.0,29.80,NNE,13,0.0,8.0,16,0.00,,,0.00,weatherlink.com 1.10,2013-08-19 21:41:00,
2013-08-19 15:56:00,84.9,38.0,29.80,North,8,7.0,14.0,19,0.00,,,0.00,weatherlink.com 1.10,2013-08-19 21:56:00,
2013-08-19 16:11:00,86.4,38.0,29.79,NE,39,9.0,13.0,18,0.00,,,0.00,weatherlink.com 1.10,2013-08-19 22:11:00,
2013-08-19 16:26:00,87.5,39.0,29.78,North,6,6.0,9.0,18,0.00,,,0.00,weatherlink.com 1.10,2013-08-19 22:26:00,
2013-08-19 16:41:00,87.7,39.0,29.77,NW,305,6.0,10.0,18,0.00,,,0.00,weatherlink.com 1.10,2013-08-19 22:41:00,
2013-08-19 16:56:00,88.5,40.0,29.76,NNW,338,13.0,15.0,18,0.00,,,0.00,weatherlink.com 1.10,2013-08-19 22:56:00,
2013-08-19 17:11:00,86.3,41.0,29.76,NNE,32,2.0,16.0,20,0.00,,,0.00,weatherlink.com 1.10,2013-08-19 23:11:00,
2013-08-19 17:26:00,83.8,40.0,29.75,NNE,27,3.0,15.0,21,0.00,,,0.00,weatherlink.com 1.10,2013-08-19 23:26:00,
2013-08-19 17:41:00,82.7,39.0,29.75,North,2,1.0,12.0,21,0.00,,,0.00,weatherlink.com 1.10,2013-08-19 23:41:00,
2013-08-19 17:56:00,81.4,40.0,29.75,North,6,3.0,9.0,23,0.00,,,0.00,weatherlink.com 1.10,2013-08-19 23:56:00,
2013-08-19 18:11:00,80.9,41.0,29.75,North,359,6.0,10.0,24,0.00,,,0.00,weatherlink.com 1.10,2013-08-20 00:11:00,
2013-08-19 18:26:00,80.9,41.0,29.74,North,1,0.0,7.0,24,0.00,,,0.00,weatherlink.com 1.10,2013-08-20 00:26:00,
2013-08-19 18:41:00,82.3,41.0,29.74,North,1,1.0,9.0,23,0.00,,,0.00,weatherlink.com 1.10,2013-08-20 00:41:00,
2013-08-19 18:56:00,82.0,41.0,29.74,North,356,3.0,7.0,23,0.00,,,0.00,weatherlink.com 1.10,2013-08-20 00:56:00,
2013-08-19 19:11:00,81.8,42.0,29.74,NNW,343,0.0,6.0,24,0.00,,,0.00,weatherlink.com 1.10,2013-08-20 01:11:00,
2013-08-19 19:26:00,81.2,42.0,29.74,NNW,343,0.0,3.0,25,0.00,,,0.00,weatherlink.com 1.10,2013-08-20 01:26:00,
2013-08-19 19:41:00,79.3,42.0,29.74,NNW,343,0.0,0.0,26,0.00,,,0.00,weatherlink.com 1.10,2013-08-20 01:41:00,
2013-08-19 19:56:00,74.9,41.0,29.75,SSE,162,0.0,5.0,30,0.00,,,0.00,weatherlink.com 1.10,2013-08-20 01:56:00,
2013-08-19 20:11:00,73.7,42.0,29.75,SE,128,0.0,5.0,32,0.00,,,0.00,weatherlink.com 1.10,2013-08-20 02:11:00,
2013-08-19 20:26:00,72.4,42.0,29.76,SE,143,0.0,4.0,34,0.00,,,0.00,weatherlink.com 1.10,2013-08-20 02:26:00,
2013-08-19 20:41:00,71.2,42.0,29.77,East,91,2.0,4.0,35,0.00,,,0.00,weatherlink.com 1.10,2013-08-20 02:41:00,
2013-08-19 20:56:00,71.6,42.0,29.77,SE,131,3.0,9.0,35,0.00,,,0.00,weatherlink.com 1.10,2013-08-20 02:56:00,
2013-08-19 21:11:00,70.7,42.0,29.77,SE,127,6.0,9.0,36,0.00,,,0.00,weatherlink.com 1.10,2013-08-20 03:11:00,
2013-08-19 21:26:00,69.9,42.0,29.77,SSE,149,7.0,10.0,37,0.00,,,0.00,weatherlink.com 1.10,2013-08-20 03:26:00,
2013-08-19 21:41:00,69.0,42.0,29.78,SE,128,5.0,9.0,37,0.00,,,0.00,weatherlink.com 1.10,2013-08-20 03:41:00,
2013-08-19 21:56:00,68.1,41.0,29.78,ESE,106,0.0,0.0,38,0.00,,,0.00,weatherlink.com 1.10,2013-08-20 03:56:00,
2013-08-19 22:11:00,66.0,40.0,29.79,East,98,0.0,0.0,39,0.00,,,0.00,weatherlink.com 1.10,2013-08-20 04:11:00,
2013-08-19 22:26:00,64.7,40.0,29.79,East,98,0.0,0.0,40,0.00,,,0.00,weatherlink.com 1.10,2013-08-20 04:26:00,
2013-08-19 22:41:00,66.0,41.0,29.79,SSE,147,0.0,7.0,41,0.00,,,0.00,weatherlink.com 1.10,2013-08-20 04:41:00,
2013-08-19 22:57:00,66.0,41.0,29.79,ESE,103,4.0,8.0,41,0.00,,,0.00,weatherlink.com 1.10,2013-08-20 04:57:00,
2013-08-19 23:12:00,63.4,40.0,29.80,East,89,0.0,0.0,42,0.00,,,0.00,weatherlink.com 1.10,2013-08-20 05:12:00,
2013-08-19 23:27:00,61.8,39.0,29.80,ENE,71,0.0,0.0,44,0.00,,,0.00,weatherlink.com 1.10,2013-08-20 05:27:00,
2013-08-19 23:42:00,61.8,40.0,29.80,NE,51,4.0,5.0,45,0.00,,,0.00,weatherlink.com 1.10,2013-08-20 05:42:00,
2013-08-19 23:57:00,61.8,40.0,29.80,NE,45,2.0,5.0,45,0.00,,,0.00,weatherlink.com 1.10,2013-08-20 05:57:00,